TimeCDT,TemperatureF,Dew PointF,Humidity,Sea Level PressureIn,VisibilityMPH,Wind Direction,Wind SpeedMPH,Gust SpeedMPH,PrecipitationIn,Events,Conditions,WindDirDegrees,DateUTC
12:15 AM,73.4,64.6,74,30.18,10.0,SSE,5.8,-,N/A,,Clear,160,2013-07-18 05:15:00
12:35 AM,72.7,64.4,75,30.18,10.0,Calm,Calm,-,N/A,,Clear,0,2013-07-18 05:35:00
12:55 AM,72.5,64.4,76,30.18,10.0,South,5.8,-,N/A,,Clear,170,2013-07-18 05:55:00
1:15 AM,71.4,64.4,78,30.18,10.0,SSE,3.5,-,N/A,,Clear,160,2013-07-18 06:15:00
1:35 AM,70.7,64.4,80,30.18,10.0,SSE,4.6,-,N/A,,Clear,160,2013-07-18 06:35:00
1:55 AM,70.7,64.0,79,30.17,10.0,SSE,4.6,-,N/A,,Clear,150,2013-07-18 06:55:00
2:15 AM,70.7,64.0,79,30.17,10.0,SE,4.6,-,N/A,,Clear,140,2013-07-18 07:15:00
2:35 AM,70.7,63.9,79,30.17,10.0,SSE,3.5,-,N/A,,Clear,150,2013-07-18 07:35:00
2:55 AM,69.8,63.7,81,30.17,10.0,SSE,3.5,-,N/A,,Clear,160,2013-07-18 07:55:00
3:15 AM,69.4,63.7,82,30.16,10.0,South,3.5,-,N/A,,Clear,170,2013-07-18 08:15:00
3:35 AM,69.4,63.7,82,30.16,10.0,SSE,4.6,-,N/A,,Clear,150,2013-07-18 08:35:00
3:55 AM,69.3,63.5,82,30.15,10.0,SE,4.6,-,N/A,,Clear,130,2013-07-18 08:55:00
4:15 AM,68.9,63.7,83,30.15,10.0,SE,3.5,-,N/A,,Clear,140,2013-07-18 09:15:00
4:35 AM,68.5,63.7,84,30.15,10.0,SE,3.5,-,N/A,,Clear,140,2013-07-18 09:35:00
4:55 AM,68.7,63.5,83,30.15,10.0,SSE,4.6,-,N/A,,Clear,150,2013-07-18 09:55:00
5:15 AM,68.4,63.5,84,30.15,10.0,South,3.5,-,N/A,,Clear,170,2013-07-18 10:15:00
5:35 AM,67.8,63.5,86,30.13,10.0,SSE,4.6,-,N/A,,Clear,160,2013-07-18 10:35:00
5:55 AM,68.0,63.5,85,30.13,10.0,SSE,3.5,-,N/A,,Clear,150,2013-07-18 10:55:00
6:15 AM,68.0,63.5,85,30.13,10.0,SSE,4.6,-,N/A,,Clear,160,2013-07-18 11:15:00
6:35 AM,67.5,63.5,87,30.13,7.0,SSE,5.8,-,N/A,,Clear,160,2013-07-18 11:35:00
6:55 AM,69.1,63.9,83,30.13,10.0,South,5.8,-,N/A,,Clear,180,2013-07-18 11:55:00
7:15 AM,70.7,64.4,80,30.13,10.0,SSW,4.6,-,N/A,,Clear,200,2013-07-18 12:15:00
7:35 AM,71.8,64.6,78,30.13,10.0,South,4.6,-,N/A,,Clear,190,2013-07-18 12:35:00
7:55 AM,72.9,65.1,77,30.12,10.0,South,6.9,-,N/A,,Clear,180,2013-07-18 12:55:00
8:15 AM,74.3,65.5,74,30.12,10.0,South,9.2,-,N/A,,Clear,190,2013-07-18 13:15:00
8:35 AM,75.6,65.1,70,30.12,10.0,SSW,10.4,-,N/A,,Clear,200,2013-07-18 13:35:00
8:55 AM,77.0,65.5,67,30.12,10.0,SSW,10.4,-,N/A,,Clear,200,2013-07-18 13:55:00
9:15 AM,77.9,65.5,65,30.11,10.0,SSW,12.7,-,N/A,,Clear,200,2013-07-18 14:15:00
9:35 AM,78.8,65.7,64,30.12,10.0,SSW,11.5,19.6,N/A,,Clear,210,2013-07-18 14:35:00
9:55 AM,79.9,65.8,62,30.11,10.0,SSW,11.5,-,N/A,,Clear,210,2013-07-18 14:55:00
10:15 AM,81.7,65.7,58,30.11,10.0,SSW,16.1,20.7,N/A,,Clear,200,2013-07-18 15:15:00
10:35 AM,82.4,65.3,56,30.10,10.0,SW,18.4,24.2,N/A,,Clear,220,2013-07-18 15:35:00
10:55 AM,83.3,64.6,53,30.10,10.0,SW,16.1,23.0,N/A,,Clear,220,2013-07-18 15:55:00
11:15 AM,83.7,64.8,53,30.09,10.0,SW,12.7,24.2,N/A,,Clear,220,2013-07-18 16:15:00
11:35 AM,84.7,63.9,49,30.08,10.0,SW,17.3,23.0,N/A,,Clear,220,2013-07-18 16:35:00
11:55 AM,85.5,64.6,49,30.08,10.0,SSW,15.0,19.6,N/A,,Clear,210,2013-07-18 16:55:00
12:15 PM,86.2,64.6,48,30.07,10.0,SSW,17.3,23.0,N/A,,Clear,200,2013-07-18 17:15:00
12:35 PM,86.2,63.1,46,30.06,10.0,SSW,18.4,25.3,N/A,,Clear,210,2013-07-18 17:35:00
12:55 PM,87.4,62.6,43,30.05,10.0,SSW,19.6,24.2,N/A,,Clear,210,2013-07-18 17:55:00
1:15 PM,87.6,63.1,44,30.05,10.0,SSW,20.7,25.3,N/A,,Clear,200,2013-07-18 18:15:00
1:35 PM,88.3,63.5,43,30.04,10.0,SSW,16.1,21.9,N/A,,Scattered Clouds,210,2013-07-18 18:35:00
1:55 PM,89.4,64.4,43,30.04,10.0,SSW,18.4,24.2,N/A,,Scattered Clouds,200,2013-07-18 18:55:00
2:15 PM,88.9,63.9,43,30.03,10.0,SSW,19.6,26.5,N/A,,Clear,200,2013-07-18 19:15:00
2:35 PM,89.6,63.3,41,30.03,10.0,SSW,17.3,28.8,N/A,,Clear,200,2013-07-18 19:35:00
2:55 PM,89.6,63.1,41,30.02,10.0,SSW,20.7,26.5,N/A,,Clear,200,2013-07-18 19:55:00
3:15 PM,90.0,63.7,41,30.02,10.0,SSW,16.1,25.3,N/A,,Scattered Clouds,200,2013-07-18 20:15:00
3:35 PM,90.5,62.8,40,30.01,10.0,SSW,17.3,27.6,N/A,,Scattered Clouds,200,2013-07-18 20:35:00
3:55 PM,90.9,61.5,37,30.00,10.0,SSW,18.4,24.2,N/A,,Scattered Clouds,210,2013-07-18 20:55:00
4:15 PM,90.9,62.2,38,29.99,10.0,SSW,16.1,25.3,N/A,,Clear,210,2013-07-18 21:15:00
5:15 PM,91.2,61.9,37,29.97,10.0,SSW,18.4,24.2,N/A,,Clear,200,2013-07-18 22:15:00
5:35 PM,91.0,61.3,37,29.97,10.0,SSW,16.1,23.0,N/A,,Clear,210,2013-07-18 22:35:00
5:55 PM,91.6,61.0,36,29.96,10.0,SSW,15.0,23.0,N/A,,Clear,210,2013-07-18 22:55:00
6:15 PM,90.9,61.7,38,29.96,10.0,SSW,13.8,19.6,N/A,,Clear,200,2013-07-18 23:15:00
6:35 PM,91.0,62.1,38,29.95,10.0,South,12.7,18.4,N/A,,Clear,190,2013-07-18 23:35:00
6:55 PM,90.3,61.9,38,29.94,10.0,SSW,13.8,-,N/A,,Scattered Clouds,200,2013-07-18 23:55:00
7:15 PM,89.6,61.9,39,29.93,10.0,SSW,11.5,-,N/A,,Clear,200,2013-07-19 00:15:00
7:35 PM,88.7,65.7,46,29.93,10.0,South,6.9,-,N/A,,Clear,180,2013-07-19 00:35:00
7:55 PM,87.6,64.8,46,29.93,10.0,South,6.9,-,N/A,,Clear,180,2013-07-19 00:55:00
8:15 PM,86.2,64.9,49,29.93,10.0,South,5.8,-,N/A,,Clear,180,2013-07-19 01:15:00
8:35 PM,84.2,65.5,53,29.92,10.0,SSE,5.8,-,N/A,,Clear,160,2013-07-19 01:35:00
8:55 PM,81.9,65.8,58,29.92,10.0,SSE,5.8,-,N/A,,Clear,160,2013-07-19 01:55:00
9:15 PM,79.9,66.2,63,29.93,10.0,SSE,5.8,-,N/A,,Clear,160,2013-07-19 02:15:00
9:35 PM,78.6,66.6,66,29.93,10.0,South,3.5,-,N/A,,Clear,170,2013-07-19 02:35:00
9:55 PM,77.9,66.4,68,29.95,10.0,SSE,3.5,-,N/A,,Clear,160,2013-07-19 02:55:00
10:15 PM,76.6,66.4,70,29.95,10.0,SSE,5.8,-,N/A,,Clear,150,2013-07-19 03:15:00
10:35 PM,76.3,66.2,71,29.95,10.0,SSE,5.8,-,N/A,,Scattered Clouds,160,2013-07-19 03:35:00
10:55 PM,76.5,66.4,71,29.95,10.0,SSE,6.9,-,N/A,,Clear,150,2013-07-19 03:55:00
11:15 PM,76.1,66.2,71,29.95,10.0,SSE,5.8,-,N/A,,Clear,160,2013-07-19 04:15:00
11:35 PM,76.1,65.5,70,29.95,10.0,South,5.8,-,N/A,,Clear,170,2013-07-19 04:35:00
11:55 PM,76.5,64.2,66,29.95,10.0,South,6.9,-,N/A,,Clear,180,2013-07-19 04:55:00